SCP
0 0 0 0 0 0 0 0 0 0 0 0 0 0 0 0 0 0 0 0 -0 0 0 0 0 0 0 0 0 0 0 0 0 0 0 0 0 0 0 0 0 0 0 0 0 0 0 0 0 0 0 0 0 0
0 0 0 0 0 0 0 0 0 0 0 0 0 0 0 0 0 0 0 0 0 -0 0 0 0 0 0 0 0 0 0 0 0 0 0 0 0 0 0 0 0 0 0 0 0 0 0 0 0 0 0 0 0 0
0 0 0 0 0 0 0 0 0 0 0 0 0 0 0 0 0 -0 0 0 0 0 0 0 0 0 0 0 0 0 0 0 0 0 0 0 0 0 0 0 0 0 0 0 0 0 0 0 0 0 0 0 0 0
-0 0 -0 0 0 0 0 0 0 0 0 0 0 0 0 0 0 0 0 0 0 0 0 0 -0 0 0 0 0 0 0 0 0 0 0 0 0 0 0 0 0 0 0 0 0 0 0 0 0 0 0 0 0 0
-0 -0 -0 -0 -0 -0 0 0 0 0 0 0 0 0 0 0 0 0 0 0 0 0 0 0 0 0 0 0 0 0 0 0 0 0 0 0 0 0 0 0 0 0 0 0 0 0 0 0 0 0 0 0 0 0
-0 0 -0 0 -0 -0 -0 -0 0 0 0 0 0 0 0 0 0 0 0 0 0 0 0 0 -0 0 0 0 0 0 0 0 0 0 0 0 0 0 0 0 0 0 0 0 0 0 0 0 0 0 0 0 0 0
-0 -0 -0 -0 -0 -0 -0 -0 -0 0 0 -0 0 0 0 0 0 0 0 0 0 0 0 0 0 -0 0 0 0 0 0 0 0 0 0 0 0 0 0 0 0 0 0 0 0 0 0 0 0 0 0 0 0 0
-0 -0 -0 0 0 -0 -0 -0 -0 -0 -0 -0 -0 0 0 0 0 0 0 0 0 0 0 0 0 0 0 0 0 0 0 0 0 0 0 0 0 0 0 0 0 0 0 0 0 0 0 0 0 0 0 0 0 0
-0 -0 -0 -0 -0 0 -0 -0 -0 0 -0 0 -0 0 0 0 0 0 0 0 0 0 0 0 0 0 0 0 0 0 0 0 0 0 0 0 0 0 0 0 0 0 0 0 0 0 0 0 0 0 0 0 0 0
-0 0 -0 -0 -0 -0 -0 0 0 -0 0 0 0 0 0 0 0 0 0 0 0 0 0 0 0 0 0 0 -0 -0 0 0 0 0 0 0 0 0 0 0 0 0 0 0 0 0 0 0 0 0 0 0 0 0
0 -0 -0 -0 -0 -0 -0 -0 -0 -0 0 0 0 0 0 0 0 0 0 0 0 0 0 0 0 0 0 0 0 -0 -0 0 0 0 0 0 0 0 0 0 0 0 0 0 0 0 0 0 0 0 0 0 0 0
0 -0 -0 -0 -0 -0 -0 -0 0 0 0 0 0 0 0 0 0 0 0 0 0 0 0 0 0 0 0 0 0 -0 -0 -0 0 0 0 0 0 0 0 0 0 0 0 0 0 0 0 0 0 0 0 0 0 0
-0 -0 -0 -0 -0 -0 -0 -0 -0 -0 0 0 0 0 0 0 0 0 0 0 0 0 0 0 0 0 0 0 0 0 0 0 0 -0 0 0 0 0 0 0 0 0 0 0 0 0 0 0 0 0 0 0 0 0
-0 -0 -0 -0 -0 -0 -0 -0 0 0 -0 0 0 0 0 0 0 0 0 0 0 0 0 0 0 0 0 -0 -0 0 0 0 0 0 0 0 0 0 0 0 0 0 0 0 0 0 0 0 0 0 0 0 0 0
-0 -0 -0 -0 -0 -0 -0 -0 0 0 0 0 0 0 0 0 0 0 0 0 0 0 0 0 0 0 0 0 0 0 0 0 0 0 0 0 0 0 0 0 0 0 0 0 0 0 0 0 0 0 0 0 0 -0
-0 0 0 -0 -0 -0 -0 0 0 0 0 0 0 0 0 0 0 0 0 0 0 0 0 0 0 0 0 0 0 0 0 -0 -0 -0 -0 -0 -0 0 0 0 0 0 0 0 0 0 0 0 0 0 0 0 -0 0
0 0 -0 -0 0 0 -0 0 0 0 0 0 0 0 0 0 0 0 0 0 0 0 0 0 0 0 0 0 0 0 0 0 -0 -0 -0 -0 -0 -0 -0 0 0 0 0 0 0 0 0 0 0 0 0 0 0 0
0 -0 -0 -0 0 0 0 0 0 0 0 0 0 0 0 -0 -0 -0 -0 0 0 0 0 0 0 0 0 0 0 0 0 -0 -0 -0 -0 0 0 0 -0 0 0 0 0 0 0 0 0 0 0 0 0 0 0 0
0 0 -0 -0 0 0 0 0 0 0 0 0 0 0 0 -0 -0 -0 -0 0 0 0 0 0 0 0 0 0 -0 -0 -0 -0 -0 -0 0 0 -0 0 0 0 0 0 0 0 0 0 0 0 0 0 0 0 0 0
0 -0 -0 -0 0 0 0 0 0 0 0 0 0 0 0 -0 -0 -0 -0 0 0 0 0 0 0 0 0 0 -0 -0 -0 -0 -0 -0 0 0 0 -0 0 0 0 0 0 0 0 0 0 0 0 0 0 0 0 0
-0 -0 -0 0 0 0 0 0 0 0 0 0 0 0 0 0 0 0 0 0 0 0 0 0 -0 0 -0 -0 -0 -0 -0 -0 -0 -0 0 -0 0 -0 0 0 0 0 0 0 0 0 0 0 0 0 0 0 0 0
0 -0 0 0 0 0 0 0 0 0 0 0 0 0 -0 -0 0 0 0 -0 0 -0 0 0 -0 -0 -0 -0 -0 -0 -0 0 0 0 -0 -0 0 -0 -0 0 0 0 0 0 0 0 0 0 0 0 0 0 0 0
0 0 0 0 0 0 0 0 0 0 0 0 0 -0 -0 -0 0 -0 0 0 0 -0 -0 0 -0 -0 -0 -0 -0 -0 -0 -0 -0 0 0 0 0 -0 0 0 0 0 0 0 0 0 0 0 0 0 0 0 0 0
-0 0 0 0 0 0 0 0 0 0 0 0 -0 -0 0 0 0 0 0 0 0 -0 -0 0 0 0 0 0 0 -0 -0 0 -0 0 0 0 -0 -0 -0 -0 -0 0 0 0 0 0 0 0 0 0 0 0 0 0
0 0 0 0 0 0 0 0 0 0 0 0 0 0 0 0 0 0 0 -0 -0 -0 -0 0 0 0 -0 0 0 -0 -0 0 -0 -0 0 -0 0 -0 -0 0 -0 -0 -0 -0 0 0 0 0 0 0 0 0 0 0
0 0 0 0 0 0 0 0 0 0 0 0 -0 -0 -0 -0 -0 -0 -0 -0 -0 -0 -0 0 0 0 0 0 0 0 0 0 -0 0 -0 -0 -0 0 -0 -0 -0 -0 -0 -0 0 0 0 0 0 0 0 0 0 0
0 0 0 0 0 0 0 0 0 0 0 0 0 0 -0 -0 0 -0 0 0 0 0 0 0 0 0 0 0 0 0 0 0 0 0 -0 0 -0 -0 0 -0 -0 0 0 0 0 0 0 0 0 0 0 0 0 0
0 0 0 0 0 0 0 0 0 0 0 0 0 0 0 0 0 0 0 0 0 0 0 0 0 0 -0 0 0 0 0 0 0 0 -0 0 0 0 0 0 0 -0 -0 0 0 0 0 0 0 0 0 0 0 0
0 0 0 0 0 0 0 0 0 0 0 0 0 0 0 0 0 0 0 0 0 0 0 0 0 0 0 -0 0 0 0 0 0 -0 -0 -0 -0 0 0 0 0 0 -0 -0 -0 0 0 0 0 0 0 0 0 0
0 0 0 0 0 0 0 0 0 0 0 0 0 0 0 0 0 0 0 0 0 0 0 0 0 0 0 0 0 0 0 0 0 0 0 0 -0 -0 0 0 0 0 0 0 -0 -0 -0 0 0 0 0 0 0 0
0 0 0 0 0 0 0 0 0 0 0 0 0 0 0 0 0 0 0 0 0 0 0 0 0 0 0 0 0 0 0 0 0 0 0 0 0 0 -0 -0 -0 -0 -0 -0 -0 0 0 0 0 0 0 0 0 0
0 0 0 0 0 0 0 0 0 0 0 0 0 0 0 0 0 0 0 0 0 0 0 0 0 0 0 0 0 0 0 0 0 0 0 0 0 0 0 0 0 0 0 -0 -0 -0 -0 -0 -0 -0 -0 -0 -0 0
0 0 0 0 0 0 0 0 0 0 0 0 0 0 0 0 0 0 0 0 0 0 0 0 0 0 0 0 0 0 0 0 0 0 0 0 0 0 0 0 -0 -0 -0 0 0 -0 -0 -0 -0 -0 -0 -0 -0 -0
Wind_Speed_500mb
73 74 71 68 67 64 59 61 64 64 60 59 54 53 53 56 59 59 78 66 60 45 45 56 37 31 54 71 17 21 20 8 18 15 13 10 11 17 8 12 20 26 21 13 11 12 26 37 15 19 16 26 28 23
74 77 76 71 70 65 59 60 54 50 57 65 61 57 50 54 56 55 60 59 53 57 34 43 38 57 60 55 67 60 26 23 36 11 10 7 7 8 15 12 11 14 22 20 29 19 11 57 22 86 38 42 33 27
85 87 85 81 77 73 67 65 61 62 55 57 67 58 54 51 51 54 57 53 48 36 51 69 74 74 73 69 62 22 31 36 36 34 11 8 9 12 13 13 7 9 15 10 11 32 44 60 82 62 57 63 51 52
92 87 81 78 79 77 75 68 68 66 58 55 55 60 59 55 53 51 55 56 52 21 9 16 45 63 78 78 68 74 54 53 36 52 10 8 10 28 15 10 22 14 29 24 8 28 29 58 72 93 96 91 88 89
83 81 70 72 75 75 72 69 70 71 73 69 61 56 59 58 55 54 54 57 59 42 10 19 50 46 53 71 63 69 67 58 37 12 11 15 11 8 3 5 16 20 19 20 23 68 40 62 46 62 71 71 66 67
85 90 86 68 76 78 75 73 76 78 84 78 65 57 57 57 51 45 41 61 61 61 19 5 16 25 41 43 65 64 59 60 45 17 11 20 16 31 12 18 26 66 80 85 34 75 59 78 49 42 44 52 64 70
99 73 75 70 68 76 75 73 66 61 69 79 69 58 55 54 53 50 17 9 16 38 21 5 7 37 55 60 64 46 61 51 40 28 14 11 23 30 12 31 21 76 96 103 102 72 56 77 43 48 60 62 60 65
74 76 75 73 74 76 66 61 54 46 34 30 45 45 43 46 51 52 63 55 51 34 21 6 6 9 22 17 17 44 40 43 54 30 11 17 8 11 20 35 56 70 82 90 90 80 94 111 64 72 73 69 76 80
60 70 65 63 57 3 27 29 29 30 32 25 26 26 36 42 25 45 47 45 47 41 6 5 5 7 4 5 16 25 28 18 17 22 34 21 8 12 12 31 65 79 73 64 59 62 80 75 80 75 71 79 82 90
53 54 60 53 43 26 11 4 11 15 19 18 14 9 10 7 25 13 11 12 19 15 13 5 7 5 4 4 5 4 17 11 21 21 17 12 42 19 38 34 21 11 16 27 24 47 47 65 68 74 80 88 89 91
41 45 48 47 41 33 24 17 13 13 17 17 9 5 5 7 5 7 2 5 2 3 9 8 2 4 17 3 7 18 5 8 7 16 21 8 1 12 51 43 37 30 23 18 15 26 34 35 42 57 68 72 76 81
30 34 40 44 42 31 24 19 13 8 6 12 12 12 7 5 6 5 1 2 5 3 5 3 10 12 14 11 5 9 8 7 12 10 8 27 4 46 64 67 58 48 42 34 29 32 35 40 41 52 59 71 75 75
27 30 41 38 36 32 28 23 23 24 20 12 7 6 5 6 9 5 4 4 4 13 22 22 9 16 10 12 8 6 13 11 3 7 10 6 24 55 71 73 67 54 48 40 36 34 36 42 38 47 60 67 70 68
37 34 35 36 40 25 13 15 16 17 9 5 6 8 5 6 8 4 3 5 8 13 35 27 12 6 9 5 6 11 11 7 8 8 6 4 40 60 70 69 68 66 58 52 46 45 42 43 45 43 50 54 58 64
26 19 27 20 30 20 11 9 11 15 10 10 9 6 7 7 14 11 14 3 21 31 26 11 13 8 6 6 2 9 9 6 7 3 5 31 55 64 67 65 69 67 63 59 55 52 47 47 48 45 43 51 52 57
25 24 28 27 27 12 13 10 9 11 9 11 21 7 22 5 9 17 26 15 36 40 14 1 3 6 7 3 4 4 4 4 4 5 37 52 55 63 68 73 69 67 67 65 59 56 52 47 47 47 43 42 47 50
26 25 30 24 17 12 13 8 9 13 12 11 9 22 12 12 7 12 20 27 37 21 4 2 1 6 9 5 1 7 5 5 27 44 55 59 56 70 69 68 67 68 68 64 59 54 53 48 46 44 46 41 43 43
28 32 28 21 14 13 12 13 11 14 15 21 10 9 26 24 11 24 28 30 19 14 11 2 7 11 4 4 5 1 14 37 47 46 54 70 70 64 63 70 69 68 66 62 59 56 52 47 50 50 45 42 42 36
27 31 27 23 14 10 8 14 14 12 16 9 11 16 9 9 24 30 30 21 4 12 3 8 9 4 5 5 7 36 42 41 52 59 67 67 59 63 65 63 68 63 60 60 53 53 50 42 51 51 46 44 42 28
22 27 25 24 14 8 11 14 13 13 10 10 15 14 7 8 19 24 35 25 20 9 12 7 1 7 16 41 46 51 56 55 53 59 61 58 64 62 60 61 65 62 60 54 48 44 42 40 40 41 38 32 22 14
17 16 21 12 11 24 16 13 14 11 7 8 14 12 7 11 13 28 31 28 15 11 4 11 32 45 48 54 50 48 52 51 56 53 65 80 75 68 67 62 57 56 56 55 54 50 42 46 45 35 28 17 10 9
17 17 11 21 17 14 19 24 9 10 8 8 11 16 10 8 15 17 25 18 7 6 15 36 47 52 59 58 52 46 46 46 50 52 51 49 59 60 61 63 63 63 57 46 42 49 50 41 31 24 14 7 6 13
11 13 19 27 12 20 10 21 10 18 8 20 13 8 8 11 16 20 6 4 4 27 39 41 46 46 48 45 44 42 41 47 54 56 55 51 48 47 50 52 47 54 53 44 45 43 41 30 23 13 5 11 18 25
21 18 21 20 28 11 15 18 13 14 14 10 8 11 10 14 26 11 1 5 17 46 52 53 54 59 56 51 55 56 52 48 52 52 46 49 50 53 53 50 48 36 36 47 46 39 32 25 19 8 4 13 26 34
14 26 17 17 22 17 14 12 15 13 6 6 11 7 9 15 7 6 3 8 29 48 57 57 56 55 53 56 58 58 50 47 51 58 37 34 41 49 48 45 42 31 37 40 33 29 25 20 11 3 10 18 27 35
16 20 12 11 8 9 2 7 7 5 4 8 5 11 9 5 7 8 6 20 37 46 54 56 56 61 57 51 57 60 58 48 45 43 30 28 30 39 46 52 52 41 33 31 34 29 22 12 4 7 20 26 30 38
11 7 10 10 8 6 4 3 5 2 5 4 6 9 7 7 7 8 13 28 39 48 49 44 41 41 48 51 46 45 47 42 35 30 26 25 24 25 32 40 46 44 38 29 20 10 7 3 6 16 26 32 33 37
6 4 2 12 3 4 4 1 3 5 6 4 6 5 5 8 6 9 26 43 45 45 41 35 31 33 36 35 38 43 47 47 36 29 23 29 26 28 24 22 25 27 29 29 18 7 9 17 24 28 32 39 44 46
2 9 12 4 5 9 10 12 8 6 4 3 5 6 9 12 24 44 41 36 36 38 37 35 30 30 29 27 30 35 46 55 60 65 65 64 62 52 37 26 23 26 32 42 35 23 20 26 36 44 51 56 60 63
5 13 5 5 3 7 3 8 8 14 30 28 16 17 26 35 30 28 26 24 27 30 29 30 32 32 35 35 31 33 42 47 53 58 59 61 57 50 43 37 32 25 20 22 30 37 38 46 53 58 63 66 68 70
8 5 6 8 10 6 12 20 36 33 23 18 25 36 36 27 24 12 13 17 22 29 26 25 23 25 27 32 36 36 42 42 43 44 48 50 46 45 46 45 43 40 38 39 43 49 55 62 66 68 69 69 67 65
5 3 4 5 8 12 23 7 11 8 8 9 9 13 13 12 13 8 11 18 21 25 25 26 24 21 22 25 28 31 33 35 36 36 43 45 42 42 42 42 42 44 46 49 51 53 54 57 58 58 58 58 57 57
7 6 8 9 10 8 10 21 6 10 11 9 9 9 10 10 13 9 16 15 18 20 19 18 17 17 16 16 18 21 24 26 28 31 34 39 40 38 38 39 39 38 37 41 45 45 47 48 52 52 52 52 52 51
Wind_Direction_500mb
300 299 297 290 286 287 288 287 271 266 267 268 267 263 266 265 265 255 261 264 251 259 268 270 256 241 200 207 183 151 122 169 182 204 195 176 194 201 153 161 169 171 165 191 178 200 258 152 127 186 203 212 228 241
299 297 291 291 286 282 284 286 280 278 275 267 259 261 262 268 267 268 271 261 257 243 247 263 253 251 252 224 219 181 200 157 178 172 193 167 186 162 160 207 190 194 186 174 191 205 252 197 221 213 222 223 222 246
296 292 288 284 281 282 278 276 282 276 279 272 262 251 256 262 265 263 266 272 262 260 284 267 266 251 261 262 239 192 221 204 192 180 151 193 205 157 172 224 115 245 175 178 128 242 244 237 235 242 242 248 256 267
290 289 284 276 274 275 273 271 271 275 274 274 268 261 251 256 263 260 258 263 264 242 265 277 272 249 260 260 262 256 242 222 221 199 184 168 199 193 189 183 193 177 155 202 262 275 262 260 248 251 250 256 262 271
312 305 281 275 270 269 268 267 265 271 265 266 264 261 257 253 256 259 260 259 261 240 302 289 285 277 263 255 262 252 249 224 200 197 212 213 168 148 122 88 200 186 178 184 216 232 222 245 242 248 250 258 269 271
312 311 304 287 262 264 265 265 268 266 266 254 253 256 256 249 248 257 269 263 255 248 251 255 301 287 278 270 256 250 253 246 212 209 216 227 215 189 190 222 213 211 218 218 226 231 227 246 258 250 250 262 271 276
314 327 318 305 282 264 259 261 262 268 272 241 243 251 254 242 240 235 230 278 257 227 229 235 254 266 269 261 256 264 246 240 235 231 229 232 208 203 233 231 207 219 224 227 225 230 252 253 251 260 267 270 273 275
337 331 329 322 295 261 247 247 253 262 252 236 240 249 242 241 246 246 245 248 254 263 223 188 247 307 262 257 235 240 239 243 232 244 268 225 213 214 235 219 226 227 225 228 231 235 244 259 263 265 268 267 269 271
345 346 351 357 14 85 223 229 248 235 237 230 228 239 252 250 229 246 259 255 242 232 255 161 183 244 191 47 333 262 236 233 271 223 229 227 203 220 203 218 233 235 242 250 247 250 256 257 258 259 262 264 267 272
350 356 8 14 25 38 64 143 176 185 192 204 194 212 207 206 226 212 190 195 209 221 226 209 192 289 246 163 289 78 308 230 241 247 301 229 230 177 34 22 31 338 295 270 257 237 240 244 249 259 262 270 272 275
355 8 16 21 29 36 51 78 121 153 158 165 164 166 183 172 57 125 113 106 337 5 17 352 323 254 279 134 237 203 197 309 245 225 214 264 304 25 354 348 350 345 337 319 284 270 262 258 271 276 276 278 278 279
352 9 21 24 27 34 47 58 86 113 153 172 158 139 145 89 46 84 346 346 74 182 345 46 313 288 283 248 174 218 189 178 245 314 208 227 112 349 348 345 341 343 337 327 319 302 285 271 264 264 268 270 275 279
32 39 26 23 26 34 38 58 74 76 91 100 83 75 39 4 56 93 275 344 60 2 2 347 326 329 299 260 249 187 209 218 335 242 308 352 337 340 341 340 337 339 336 329 320 311 302 293 282 274 272 268 273 276
360 8 12 25 25 27 38 55 30 19 10 34 45 36 73 16 60 51 339 2 9 347 338 333 272 266 271 286 252 276 238 126 239 269 335 317 345 331 332 332 333 333 337 334 328 325 320 312 301 284 279 280 281 282
353 324 323 349 14 20 36 21 11 7 30 40 21 30 54 131 64 37 17 84 355 343 342 320 273 255 290 280 1 319 280 33 10 348 329 323 327 327 320 321 324 327 328 331 333 330 326 319 312 300 293 290 287 286
3 359 358 7 12 13 18 9 25 54 57 49 41 43 2 72 7 10 1 355 351 343 336 331 283 322 266 295 289 151 245 291 20 299 312 316 318 317 314 319 324 325 326 325 328 326 322 322 319 311 301 296 293 289
360 3 356 352 353 13 3 17 23 53 53 50 53 41 70 70 48 355 342 341 344 344 18 52 344 246 310 322 63 2 14 328 310 307 307 309 305 312 319 325 328 323 322 322 322 324 320 323 323 316 308 303 298 289
2 0 355 355 1 357 15 40 64 62 67 44 76 36 61 57 22 11 354 349 360 5 353 58 314 34 87 249 309 358 313 308 305 301 301 312 321 325 328 325 326 326 324 324 323 322 320 323 322 318 312 311 308 301
349 359 359 360 3 8 49 41 41 81 56 66 49 27 35 32 20 12 6 2 27 22 30 34 55 20 295 276 296 309 307 306 304 307 305 318 321 322 322 328 327 326 325 321 323 322 320 322 323 322 319 318 310 301
347 355 356 360 8 52 67 41 47 67 53 27 27 21 25 12 357 359 16 26 50 53 40 38 2 277 277 293 300 298 297 302 303 304 303 311 314 320 322 326 328 328 324 324 324 326 324 327 327 324 319 312 300 293
3 357 6 8 49 57 69 39 53 50 23 54 13 13 358 354 1 1 7 11 55 41 342 320 308 308 310 311 313 311 308 310 302 296 297 307 326 327 327 328 333 330 324 328 333 334 331 315 319 321 325 318 282 211
15 18 42 47 55 63 60 29 36 12 18 12 9 2 34 9 350 2 343 33 62 2 320 314 318 322 321 325 327 324 317 311 309 310 313 309 308 319 326 330 332 328 328 329 329 319 316 326 333 330 313 271 207 172
34 38 52 32 70 39 19 15 39 17 32 341 359 26 358 351 348 348 59 54 20 347 337 337 335 335 328 335 335 338 336 327 322 322 321 318 315 319 325 328 330 324 323 334 335 333 335 350 355 337 284 182 164 155
46 49 32 34 27 15 351 21 18 5 16 21 13 347 342 327 337 23 353 287 333 345 349 349 347 342 344 345 346 349 349 338 330 329 330 323 325 333 335 337 342 340 337 338 345 347 359 357 348 330 149 161 149 147
64 17 24 8 20 23 20 0 353 24 350 336 1 330 332 334 8 348 266 294 328 347 350 349 347 347 341 340 345 348 353 342 329 322 343 330 332 332 338 350 356 356 353 351 355 1 17 6 359 62 131 138 143 143
65 20 40 10 359 47 338 5 353 326 335 330 280 304 333 43 7 267 236 335 340 344 346 345 340 337 346 349 343 348 349 347 337 330 350 345 338 334 338 344 352 5 7 2 3 10 9 354 29 117 133 145 148 143
54 339 14 8 353 347 357 283 308 355 313 293 294 344 20 348 275 263 316 336 336 340 341 340 334 336 339 345 350 356 1 3 349 339 355 356 347 343 346 348 354 1 9 15 15 6 336 316 151 139 137 134 137 141
99 23 150 328 269 270 178 190 198 225 239 250 318 272 223 211 260 316 319 330 329 331 336 341 341 348 349 347 352 358 14 29 40 44 43 46 33 23 15 14 18 21 34 33 22 42 122 138 135 135 138 132 131 133
16 329 331 280 253 232 233 203 228 225 227 234 180 262 255 251 283 304 312 318 323 330 337 347 358 357 4 10 5 10 17 20 26 31 31 28 29 30 30 29 39 50 62 71 62 73 98 116 122 124 124 125 125 126
318 334 303 268 209 241 232 223 257 280 285 279 258 273 279 287 307 306 309 318 329 340 343 347 350 356 2 10 20 26 30 28 26 28 24 22 20 23 29 38 44 49 60 78 89 100 109 113 115 115 115 117 116 115
312 313 280 254 260 264 262 278 293 290 278 263 250 253 268 297 308 290 309 327 339 348 351 354 353 354 3 10 18 28 37 37 37 36 40 36 33 38 45 52 58 64 73 84 95 102 108 111 112 114 114 113 113 113
282 230 306 290 279 295 308 305 292 274 262 258 259 241 279 273 273 269 314 331 337 347 352 356 359 3 9 15 20 23 26 31 35 38 51 49 47 50 57 63 70 79 87 91 96 101 104 105 107 108 108 109 109 108
279 261 249 278 297 307 325 336 288 301 249 258 254 248 253 262 263 285 309 326 338 345 350 354 358 5 10 14 22 30 35 40 46 49 53 61 60 60 65 72 78 83 88 94 98 101 103 105 105 106 106 106 107 108
Wind_Speed_850mb
73 74 71 68 67 64 59 61 64 64 60 59 54 53 53 56 59 59 78 66 60 45 45 56 37 31 54 71 17 21 20 8 18 15 13 10 11 17 8 12 20 26 21 13 11 12 26 37 15 19 16 26 28 23
74 77 76 71 70 65 59 60 54 50 57 65 61 57 50 54 56 55 60 59 53 57 34 43 38 57 60 55 67 60 26 23 36 11 10 7 7 8 15 12 11 14 22 20 29 19 11 57 22 86 38 42 33 27
85 87 85 81 77 73 67 65 61 62 55 57 67 58 54 51 51 54 57 53 48 36 51 69 74 74 73 69 62 22 31 36 36 34 11 8 9 12 13 13 7 9 15 10 11 32 44 60 82 62 57 63 51 52
92 87 81 78 79 77 75 68 68 66 58 55 55 60 59 55 53 51 55 56 52 21 9 16 45 63 78 78 68 74 54 53 36 52 10 8 10 28 15 10 22 14 29 24 8 28 29 58 72 93 96 91 88 89
83 81 70 72 75 75 72 69 70 71 73 69 61 56 59 58 55 54 54 57 59 42 10 19 50 46 53 71 63 69 67 58 37 12 11 15 11 8 3 5 16 20 19 20 23 68 40 62 46 62 71 71 66 67
85 90 86 68 76 78 75 73 76 78 84 78 65 57 57 57 51 45 41 61 61 61 19 5 16 25 41 43 65 64 59 60 45 17 11 20 16 31 12 18 26 66 80 85 34 75 59 78 49 42 44 52 64 70
99 73 75 70 68 76 75 73 66 61 69 79 69 58 55 54 53 50 17 9 16 38 21 5 7 37 55 60 64 46 61 51 40 28 14 11 23 30 12 31 21 76 96 103 102 72 56 77 43 48 60 62 60 65
74 76 75 73 74 76 66 61 54 46 34 30 45 45 43 46 51 52 63 55 51 34 21 6 6 9 22 17 17 44 40 43 54 30 11 17 8 11 20 35 56 70 82 90 90 80 94 111 64 72 73 69 76 80
60 70 65 63 57 3 27 29 29 30 32 25 26 26 36 42 25 45 47 45 47 41 6 5 5 7 4 5 16 25 28 18 17 22 34 21 8 12 12 31 65 79 73 64 59 62 80 75 80 75 71 79 82 90
53 54 60 53 43 26 11 4 11 15 19 18 14 9 10 7 25 13 11 12 19 15 13 5 7 5 4 4 5 4 17 11 21 21 17 12 42 19 38 34 21 11 16 27 24 47 47 65 68 74 80 88 89 91
41 45 48 47 41 33 24 17 13 13 17 17 9 5 5 7 5 7 2 5 2 3 9 8 2 4 17 3 7 18 5 8 7 16 21 8 1 12 51 43 37 30 23 18 15 26 34 35 42 57 68 72 76 81
30 34 40 44 42 31 24 19 13 8 6 12 12 12 7 5 6 5 1 2 5 3 5 3 10 12 14 11 5 9 8 7 12 10 8 27 4 46 64 67 58 48 42 34 29 32 35 40 41 52 59 71 75 75
27 30 41 38 36 32 28 23 23 24 20 12 7 6 5 6 9 5 4 4 4 13 22 22 9 16 10 12 8 6 13 11 3 7 10 6 24 55 71 73 67 54 48 40 36 34 36 42 38 47 60 67 70 68
37 34 35 36 40 25 13 15 16 17 9 5 6 8 5 6 8 4 3 5 8 13 35 27 12 6 9 5 6 11 11 7 8 8 6 4 40 60 70 69 68 66 58 52 46 45 42 43 45 43 50 54 58 64
26 19 27 20 30 20 11 9 11 15 10 10 9 6 7 7 14 11 14 3 21 31 26 11 13 8 6 6 2 9 9 6 7 3 5 31 55 64 67 65 69 67 63 59 55 52 47 47 48 45 43 51 52 57
25 24 28 27 27 12 13 10 9 11 9 11 21 7 22 5 9 17 26 15 36 40 14 1 3 6 7 3 4 4 4 4 4 5 37 52 55 63 68 73 69 67 67 65 59 56 52 47 47 47 43 42 47 50
26 25 30 24 17 12 13 8 9 13 12 11 9 22 12 12 7 12 20 27 37 21 4 2 1 6 9 5 1 7 5 5 27 44 55 59 56 70 69 68 67 68 68 64 59 54 53 48 46 44 46 41 43 43
28 32 28 21 14 13 12 13 11 14 15 21 10 9 26 24 11 24 28 30 19 14 11 2 7 11 4 4 5 1 14 37 47 46 54 70 70 64 63 70 69 68 66 62 59 56 52 47 50 50 45 42 42 36
27 31 27 23 14 10 8 14 14 12 16 9 11 16 9 9 24 30 30 21 4 12 3 8 9 4 5 5 7 36 42 41 52 59 67 67 59 63 65 63 68 63 60 60 53 53 50 42 51 51 46 44 42 28
22 27 25 24 14 8 11 14 13 13 10 10 15 14 7 8 19 24 35 25 20 9 12 7 1 7 16 41 46 51 56 55 53 59 61 58 64 62 60 61 65 62 60 54 48 44 42 40 40 41 38 32 22 14
17 16 21 12 11 24 16 13 14 11 7 8 14 12 7 11 13 28 31 28 15 11 4 11 32 45 48 54 50 48 52 51 56 53 65 80 75 68 67 62 57 56 56 55 54 50 42 46 45 35 28 17 10 9
17 17 11 21 17 14 19 24 9 10 8 8 11 16 10 8 15 17 25 18 7 6 15 36 47 52 59 58 52 46 46 46 50 52 51 49 59 60 61 63 63 63 57 46 42 49 50 41 31 24 14 7 6 13
11 13 19 27 12 20 10 21 10 18 8 20 13 8 8 11 16 20 6 4 4 27 39 41 46 46 48 45 44 42 41 47 54 56 55 51 48 47 50 52 47 54 53 44 45 43 41 30 23 13 5 11 18 25
21 18 21 20 28 11 15 18 13 14 14 10 8 11 10 14 26 11 1 5 17 46 52 53 54 59 56 51 55 56 52 48 52 52 46 49 50 53 53 50 48 36 36 47 46 39 32 25 19 8 4 13 26 34
14 26 17 17 22 17 14 12 15 13 6 6 11 7 9 15 7 6 3 8 29 48 57 57 56 55 53 56 58 58 50 47 51 58 37 34 41 49 48 45 42 31 37 40 33 29 25 20 11 3 10 18 27 35
16 20 12 11 8 9 2 7 7 5 4 8 5 11 9 5 7 8 6 20 37 46 54 56 56 61 57 51 57 60 58 48 45 43 30 28 30 39 46 52 52 41 33 31 34 29 22 12 4 7 20 26 30 38
11 7 10 10 8 6 4 3 5 2 5 4 6 9 7 7 7 8 13 28 39 48 49 44 41 41 48 51 46 45 47 42 35 30 26 25 24 25 32 40 46 44 38 29 20 10 7 3 6 16 26 32 33 37
6 4 2 12 3 4 4 1 3 5 6 4 6 5 5 8 6 9 26 43 45 45 41 35 31 33 36 35 38 43 47 47 36 29 23 29 26 28 24 22 25 27 29 29 18 7 9 17 24 28 32 39 44 46
2 9 12 4 5 9 10 12 8 6 4 3 5 6 9 12 24 44 41 36 36 38 37 35 30 30 29 27 30 35 46 55 60 65 65 64 62 52 37 26 23 26 32 42 35 23 20 26 36 44 51 56 60 63
5 13 5 5 3 7 3 8 8 14 30 28 16 17 26 35 30 28 26 24 27 30 29 30 32 32 35 35 31 33 42 47 53 58 59 61 57 50 43 37 32 25 20 22 30 37 38 46 53 58 63 66 68 70
8 5 6 8 10 6 12 20 36 33 23 18 25 36 36 27 24 12 13 17 22 29 26 25 23 25 27 32 36 36 42 42 43 44 48 50 46 45 46 45 43 40 38 39 43 49 55 62 66 68 69 69 67 65
5 3 4 5 8 12 23 7 11 8 8 9 9 13 13 12 13 8 11 18 21 25 25 26 24 21 22 25 28 31 33 35 36 36 43 45 42 42 42 42 42 44 46 49 51 53 54 57 58 58 58 58 57 57
7 6 8 9 10 8 10 21 6 10 11 9 9 9 10 10 13 9 16 15 18 20 19 18 17 17 16 16 18 21 24 26 28 31 34 39 40 38 38 39 39 38 37 41 45 45 47 48 52 52 52 52 52 51
Wind_Direction_850mb
300 299 297 290 286 287 288 287 271 266 267 268 267 263 266 265 265 255 261 264 251 259 268 270 256 241 200 207 183 151 122 169 182 204 195 176 194 201 153 161 169 171 165 191 178 200 258 152 127 186 203 212 228 241
299 297 291 291 286 282 284 286 280 278 275 267 259 261 262 268 267 268 271 261 257 243 247 263 253 251 252 224 219 181 200 157 178 172 193 167 186 162 160 207 190 194 186 174 191 205 252 197 221 213 222 223 222 246
296 292 288 284 281 282 278 276 282 276 279 272 262 251 256 262 265 263 266 272 262 260 284 267 266 251 261 262 239 192 221 204 192 180 151 193 205 157 172 224 115 245 175 178 128 242 244 237 235 242 242 248 256 267
290 289 284 276 274 275 273 271 271 275 274 274 268 261 251 256 263 260 258 263 264 242 265 277 272 249 260 260 262 256 242 222 221 199 184 168 199 193 189 183 193 177 155 202 262 275 262 260 248 251 250 256 262 271
312 305 281 275 270 269 268 267 265 271 265 266 264 261 257 253 256 259 260 259 261 240 302 289 285 277 263 255 262 252 249 224 200 197 212 213 168 148 122 88 200 186 178 184 216 232 222 245 242 248 250 258 269 271
312 311 304 287 262 264 265 265 268 266 266 254 253 256 256 249 248 257 269 263 255 248 251 255 301 287 278 270 256 250 253 246 212 209 216 227 215 189 190 222 213 211 218 218 226 231 227 246 258 250 250 262 271 276
314 327 318 305 282 264 259 261 262 268 272 241 243 251 254 242 240 235 230 278 257 227 229 235 254 266 269 261 256 264 246 240 235 231 229 232 208 203 233 231 207 219 224 227 225 230 252 253 251 260 267 270 273 275
337 331 329 322 295 261 247 247 253 262 252 236 240 249 242 241 246 246 245 248 254 263 223 188 247 307 262 257 235 240 239 243 232 244 268 225 213 214 235 219 226 227 225 228 231 235 244 259 263 265 268 267 269 271
345 346 351 357 14 85 223 229 248 235 237 230 228 239 252 250 229 246 259 255 242 232 255 161 183 244 191 47 333 262 236 233 271 223 229 227 203 220 203 218 233 235 242 250 247 250 256 257 258 259 262 264 267 272
350 356 8 14 25 38 64 143 176 185 192 204 194 212 207 206 226 212 190 195 209 221 226 209 192 289 246 163 289 78 308 230 241 247 301 229 230 177 34 22 31 338 295 270 257 237 240 244 249 259 262 270 272 275
355 8 16 21 29 36 51 78 121 153 158 165 164 166 183 172 57 125 113 106 337 5 17 352 323 254 279 134 237 203 197 309 245 225 214 264 304 25 354 348 350 345 337 319 284 270 262 258 271 276 276 278 278 279
352 9 21 24 27 34 47 58 86 113 153 172 158 139 145 89 46 84 346 346 74 182 345 46 313 288 283 248 174 218 189 178 245 314 208 227 112 349 348 345 341 343 337 327 319 302 285 271 264 264 268 270 275 279
32 39 26 23 26 34 38 58 74 76 91 100 83 75 39 4 56 93 275 344 60 2 2 347 326 329 299 260 249 187 209 218 335 242 308 352 337 340 341 340 337 339 336 329 320 311 302 293 282 274 272 268 273 276
360 8 12 25 25 27 38 55 30 19 10 34 45 36 73 16 60 51 339 2 9 347 338 333 272 266 271 286 252 276 238 126 239 269 335 317 345 331 332 332 333 333 337 334 328 325 320 312 301 284 279 280 281 282
353 324 323 349 14 20 36 21 11 7 30 40 21 30 54 131 64 37 17 84 355 343 342 320 273 255 290 280 1 319 280 33 10 348 329 323 327 327 320 321 324 327 328 331 333 330 326 319 312 300 293 290 287 286
3 359 358 7 12 13 18 9 25 54 57 49 41 43 2 72 7 10 1 355 351 343 336 331 283 322 266 295 289 151 245 291 20 299 312 316 318 317 314 319 324 325 326 325 328 326 322 322 319 311 301 296 293 289
360 3 356 352 353 13 3 17 23 53 53 50 53 41 70 70 48 355 342 341 344 344 18 52 344 246 310 322 63 2 14 328 310 307 307 309 305 312 319 325 328 323 322 322 322 324 320 323 323 316 308 303 298 289
2 0 355 355 1 357 15 40 64 62 67 44 76 36 61 57 22 11 354 349 360 5 353 58 314 34 87 249 309 358 313 308 305 301 301 312 321 325 328 325 326 326 324 324 323 322 320 323 322 318 312 311 308 301
349 359 359 360 3 8 49 41 41 81 56 66 49 27 35 32 20 12 6 2 27 22 30 34 55 20 295 276 296 309 307 306 304 307 305 318 321 322 322 328 327 326 325 321 323 322 320 322 323 322 319 318 310 301
347 355 356 360 8 52 67 41 47 67 53 27 27 21 25 12 357 359 16 26 50 53 40 38 2 277 277 293 300 298 297 302 303 304 303 311 314 320 322 326 328 328 324 324 324 326 324 327 327 324 319 312 300 293
3 357 6 8 49 57 69 39 53 50 23 54 13 13 358 354 1 1 7 11 55 41 342 320 308 308 310 311 313 311 308 310 302 296 297 307 326 327 327 328 333 330 324 328 333 334 331 315 319 321 325 318 282 211
15 18 42 47 55 63 60 29 36 12 18 12 9 2 34 9 350 2 343 33 62 2 320 314 318 322 321 325 327 324 317 311 309 310 313 309 308 319 326 330 332 328 328 329 329 319 316 326 333 330 313 271 207 172
34 38 52 32 70 39 19 15 39 17 32 341 359 26 358 351 348 348 59 54 20 347 337 337 335 335 328 335 335 338 336 327 322 322 321 318 315 319 325 328 330 324 323 334 335 333 335 350 355 337 284 182 164 155
46 49 32 34 27 15 351 21 18 5 16 21 13 347 342 327 337 23 353 287 333 345 349 349 347 342 344 345 346 349 349 338 330 329 330 323 325 333 335 337 342 340 337 338 345 347 359 357 348 330 149 161 149 147
64 17 24 8 20 23 20 0 353 24 350 336 1 330 332 334 8 348 266 294 328 347 350 349 347 347 341 340 345 348 353 342 329 322 343 330 332 332 338 350 356 356 353 351 355 1 17 6 359 62 131 138 143 143
65 20 40 10 359 47 338 5 353 326 335 330 280 304 333 43 7 267 236 335 340 344 346 345 340 337 346 349 343 348 349 347 337 330 350 345 338 334 338 344 352 5 7 2 3 10 9 354 29 117 133 145 148 143
54 339 14 8 353 347 357 283 308 355 313 293 294 344 20 348 275 263 316 336 336 340 341 340 334 336 339 345 350 356 1 3 349 339 355 356 347 343 346 348 354 1 9 15 15 6 336 316 151 139 137 134 137 141
99 23 150 328 269 270 178 190 198 225 239 250 318 272 223 211 260 316 319 330 329 331 336 341 341 348 349 347 352 358 14 29 40 44 43 46 33 23 15 14 18 21 34 33 22 42 122 138 135 135 138 132 131 133
16 329 331 280 253 232 233 203 228 225 227 234 180 262 255 251 283 304 312 318 323 330 337 347 358 357 4 10 5 10 17 20 26 31 31 28 29 30 30 29 39 50 62 71 62 73 98 116 122 124 124 125 125 126
318 334 303 268 209 241 232 223 257 280 285 279 258 273 279 287 307 306 309 318 329 340 343 347 350 356 2 10 20 26 30 28 26 28 24 22 20 23 29 38 44 49 60 78 89 100 109 113 115 115 115 117 116 115
312 313 280 254 260 264 262 278 293 290 278 263 250 253 268 297 308 290 309 327 339 348 351 354 353 354 3 10 18 28 37 37 37 36 40 36 33 38 45 52 58 64 73 84 95 102 108 111 112 114 114 113 113 113
282 230 306 290 279 295 308 305 292 274 262 258 259 241 279 273 273 269 314 331 337 347 352 356 359 3 9 15 20 23 26 31 35 38 51 49 47 50 57 63 70 79 87 91 96 101 104 105 107 108 108 109 109 108
279 261 249 278 297 307 325 336 288 301 249 258 254 248 253 262 263 285 309 326 338 345 350 354 358 5 10 14 22 30 35 40 46 49 53 61 60 60 65 72 78 83 88 94 98 101 103 105 105 106 106 106 107 108